User: anonymous   Login
Location: Unspecified
(0.0000°N, 0.0000°E)
Time: 02:13:07
(UTC+00:00)
Language:

USA 207 - Orbit

View from above orbital plane
View from above orbital plane
View from above satellite
View from above satellite

Ground track
Ground track

The orbit data is extracted from the following two-line orbital elements,

1 35815U 09047A   17065.94345443 0.00000000  00000-0  00000-0 0    00
2 35815   0.0432 192.1095 0003617 314.1959  45.7779  1.00270000    08
Epoch (UTC): 06 March 2017 22:38:34
Eccentricity: 0.0003617
inclination: 0.0432°
perigee height: 35771 km
apogee height: 35802 km
right ascension of ascending node: 192.1095°
argument of perigee: 314.1959°
revolutions per day: 1.00270000
mean anomaly at epoch: 45.7779°
orbit number at epoch: 0

The dashed part of the orbit path shows where the satellite is in the earth's shadow,  

DLR